Regional Weather Roundup
Issued by NWS Northern Indiana

Home | Current Version | Previous Version | Text Only | Print | Product List | Glossary Off
Versions: 1 2 3 4 5 6 7 8 9 10 11 12 13 14 15 16 17 18 19 20 21 22 23 24 25 26 27 28 29 30 31 32 33 34 35 36 37 38 39 40 41 42 43 44 45 46 47 48 49 50

000
ASUS43 KIWX 260210
RWRIWX

KIWX WEATHER ROUNDUP
NATIONAL WEATHER SERVICE NORTHERN INDIANA
1000 PM EDT SUN JUN 25 2017

NOTE: "FAIR" INDICATES FEW OR NO CLOUDS BELOW 12,000 FEET WITH NO
SIGNIFICANT WEATHER AND/OR OBSTRUCTIONS TO VISIBILITY.

* THESE STATIONS ARE NOT UNDER NWS QUALITY CONTROL. THEY ALSO MAY NOT
  REPORT WEATHER SUCH AS PRECIPITATION OR FOG.

INZ001>027-260300-
NORTHERN INDIANA

CITY           SKY/WX    TMP DP  RH WIND       PRES   REMARKS
GARY*          PTCLDY    66  43  42 W21       30.10S
VALPARAISO     CLEAR     66  49  54 W20       30.10R
MICHIGAN CITY* MOCLDY    64  52  63 W7        30.09R
LAPORTE*       MOCLDY    65  47  52 W5        30.09S
KNOX*          CLOUDY    64  36  34 W12       30.08F
SOUTH BEND     LGT RAIN  62  51  67 W12G22    30.09R
GOSHEN         CLOUDY    64  47  53 W6        30.07S
MONTICELLO*    CLEAR     63  47  56 W6        30.11R
LOGANSPORT*    CLEAR     59  48  67 W5        30.11S
ROCHESTER*     CLEAR     66  45  45 W6        30.10S
WARSAW*        MOCLDY    63  45  51 W7        30.08S
AUBURN*        CLOUDY    64  45  48 SW3       30.08S
FORT WAYNE     MOCLDY    65  48  54 W7        30.09S
HUNTINGTON*    CLOUDY    62  47  57 W3        30.09S
PERU/GRISSOM   CLEAR     62  50  66 W6        30.07S

$$
INZ028>050-260300-
CENTRAL INDIANA

CITY           SKY/WX    TMP DP  RH WIND       PRES   REMARKS
LAFAYETTE      CLEAR     62  48  60 W8        30.11S
KOKOMO*        PTCLDY    63  51  65 W7        30.11S
MUNCIE*        CLEAR     65  49  56 CALM      30.11S
INDIANAPOLIS   PTCLDY    65  49  56 W7        30.12R

$$
MIZ043>046-050>051-056>058-064>065-071>073-077>080-260300-
SOUTHWEST LOWER MICHIGAN

CITY           SKY/WX    TMP DP  RH WIND       PRES   REMARKS
BATTLE CREEK   PTCLDY    60  47  61 SW6       30.07S
BENTON HARBOR  CLOUDY    65  51  60 W8        30.07S
COLDWATER*     PTCLDY    61  44  53 W6        30.07S
HILLSDALE*     PTCLDY    59  43  55 W3        30.06S
HOLLAND        MOCLDY    62  53  72 W7        30.06S
GRAND RAPIDS   PTCLDY    61  51  70 W9        30.04S
KALAMAZOO      CLEAR     63  45  51 W6        30.07S
STURGIS*       PTCLDY    62  47  58 CALM      30.07S
THREE RIVERS*  FAIR      61  46  57 CALM      30.07S

$$
OHZ001>008-015>018-024>025-260300-
NORTHWEST OHIO

CITY           SKY/WX    TMP DP  RH WIND       PRES   REMARKS
WAUSEON*       CLOUDY    63  43  48 W7        30.07R
DEFIANCE       CLOUDY    63  48  58 CALM      30.07S
FINDLAY        CLOUDY    64  48  56 W6        30.07R
TOLEDO EXPRESS CLEAR     63  45  51 SW6       30.06R
TOLEDO METCALF PTCLDY    65  46  50 SW6       30.06S
LIMA           CLEAR     62  46  55 SW7       30.09S

$$
AND FOR LAKE MICHIGAN COASTAL AND OPEN LAKE BUOY OBSERVATIONS

STATION/POSITION TEMP    WIND        PRES    VSBY  WAVE
                 AIR SEA DIR/SP/G                  HT/PER
                 (F)     (DEG/KT/KT) (MB)    (MI)  (FT/S)
CALUMET HARBOR    65     270/  6/ 10 1018.5R
MICHIGAN CITY     66     270/ 18/ 19   N/A
BURNS HARBOR      67     270/ 20/ 23 1019.0R
SOUTH LAKE BUOY   63 62  310/ 14/ 16 1017.7F         2/ 4
4 MI NW BRIDGMAN  67 69  310/ 16/ 19 1018.1          2/ 4
MICHIGAN CITY     66 67  290/ 17/ 23   N/A           3/ 4

$$
&&




USA.gov is the U.S. government's official web portal to all federal, state and local government web resources and services.